This is the latest recevied weather packets stored in our database for station/object HB9FHL-13. If no packets are shown the sender has not sent any weather packets the latest 10 day(s).
| Time | Temp. | Humidity | Pressure | Rain* | Wind** | Luminosity | Snow |
|---|---|---|---|---|---|---|---|
| 1787854332 | 25.56° C | - | 1011.5 hPa | 0 mm | - | - | - |
| 1787854034 | 26.11° C | - | 1011.3 hPa | 0 mm | - | - | - |
| 1787853731 | 25.56° C | - | 1009.3 hPa | 0 mm | - | - | - |
| 1787853430 | 25.56° C | - | 1012.6 hPa | 0 mm | - | - | - |
| 1787853128 | 26.11° C | - | 1012.9 hPa | 0 mm | - | - | - |
| 1787852827 | 26.67° C | - | 1010.9 hPa | 0 mm | - | - | - |
| 1787852558 | 25.56° C | - | 1012.8 hPa | 0 mm | - | - | - |
| 1787852527 | 25.56° C | - | 1012.8 hPa | 0 mm | - | - | - |
| 1787852226 | 26.67° C | - | 1011.7 hPa | 0 mm | - | - | - |
| 1787851926 | 26.67° C | - | 1011.8 hPa | 0 mm | - | - | - |
| 1787851625 | 26.11° C | - | 1013.8 hPa | 0 mm | - | - | - |
| 1787851332 | 25.56° C | - | 1012.4 hPa | 0 mm | - | - | - |
| 1787851024 | 26.11° C | - | 1010.9 hPa | 0 mm | - | - | - |
| 1787850724 | 25.56° C | - | 1011.9 hPa | 0 mm | - | - | - |
| 1787850423 | 25.56° C | - | 1017.8 hPa | 0 mm | - | - | - |
| 1787850123 | 26.11° C | - | 1010.4 hPa | 0 mm | - | - | - |
| 1787849822 | 26.11° C | - | 1010 hPa | 0 mm | - | - | - |
| 1787849522 | 27.22° C | - | 1010 hPa | 0 mm | - | - | - |
| 1787849341 | 27.22° C | - | 1009.9 hPa | 0 mm | - | - | - |
| 1787849221 | 27.22° C | - | 1009.9 hPa | 0 mm | - | - | - |
| 1787848921 | 26.67° C | - | 1014.4 hPa | 0 mm | - | - | - |
| 1787848620 | 27.22° C | - | 1010.4 hPa | 0 mm | - | - | - |
| 1787848320 | 27.22° C | - | 1012.2 hPa | 0 mm | - | - | - |
| 1787848019 | 27.22° C | - | 1013.8 hPa | 0 mm | - | - | - |
| 1787847729 | 27.78° C | - | 1009.6 hPa | 0 mm | - | - | - |
* Rain since midnight (hover to see other rain measurements)
** Current wind speed in m/s (hover to see current wind gust speed)